Change the Weather History Date:

Wednesday, February 27, 2013

  Actual Average Record
Temperature  
Mean Temperature 30 °F -  
Max Temperature 34 °F 34 °F 46 °F (1998)
Min Temperature 27 °F 12 °F -15 °F (2003)
Degree Days  
Heating Degree Days 34    
Moisture  
Dew Point 29 °F    
Average Humidity 91    
Maximum Humidity 100    
Minimum Humidity 82    
Precipitation  
Precipitation 0.45 in - - ()
Sea Level Pressure  
Sea Level Pressure 29.95 in    
Wind  
Wind Speed 6 mph (NE)    
Max Wind Speed 12 mph    
Max Gust Speed 22 mph    
Visibility 2 miles    
Events Fog , Snow    
Averages and records for this station are not official NWS values.
T = Trace of Precipitation, MM = Missing Value Source: NWS Daily Summary

Daily Weather History Graph

Daily Weather History Graph

Search for Another Location

Airport or City:

Trip Planner

Search our weather history database for the weather conditions in past years. The results will help you decide how hot, cold, wet, or windy it might be!

Date:

Astronomy

Feb. 27, 2013 Rise Set
Actual Time 6:23 AM EST 5:29 PM EST
Civil Twilight 5:54 AM EST 5:58 PM EST
Nautical Twilight 5:21 AM EST 6:32 PM EST
Astronomical Twilight 4:47 AM EST 7:05 PM EST
Moon 7:54 PM EST 6:51 AM EST
Length of Visible Light 12h 04m
Length of Day
11h 06m
Waning Gibbous, 96% of the Moon is Illuminated
Feb 27
Waning Gibbous
Mar 4
Last Quarter
Mar 11
New
Mar 19
First Quarter
Mar 27
Full

Hourly Weather History & Observations

Time (EST) Temp. Windchill Dew Point Humidity Pressure Visibility Wind Dir Wind Speed Gust Speed Precip Events Conditions
12:54 AM 28.0 °F - 26.1 °F 92% 30.23 in 10.0 mi Calm Calm - N/A   Clear
1:54 AM 27.0 °F 21.6 °F 25.0 °F 92% 30.22 in 10.0 mi NW 4.6 mph - N/A   Clear
2:54 AM 28.0 °F 22.8 °F 26.1 °F 92% 30.20 in 10.0 mi WNW 4.6 mph - N/A   Clear
3:54 AM 28.9 °F - 27.0 °F 92% 30.20 in 10.0 mi Calm Calm - N/A   Scattered Clouds
4:54 AM 30.0 °F - 26.1 °F 85% 30.18 in 10.0 mi Calm Calm - N/A   Overcast
5:54 AM 30.9 °F 25.2 °F 26.1 °F 82% 30.15 in 10.0 mi NNE 5.8 mph - N/A   Overcast
6:54 AM 30.9 °F 26.2 °F 26.1 °F 82% 30.14 in 3.0 mi NE 4.6 mph - 0.00 in Snow Light Snow
6:59 AM 30.2 °F 23.4 °F 26.6 °F 86% 30.12 in 2.5 mi NE 6.9 mph - 0.00 in Snow Light Snow
7:21 AM 30.2 °F 25.4 °F 28.4 °F 93% 30.11 in 0.5 mi NE 4.6 mph - 0.01 in Fog , Snow Snow
7:47 AM 30.2 °F 24.3 °F 28.4 °F 93% 30.11 in 1.0 mi NNE 5.8 mph - 0.03 in Snow Light Snow
7:54 AM 30.9 °F 25.2 °F 28.9 °F 92% 30.12 in 1.0 mi NNE 5.8 mph - 0.03 in Snow Light Snow
8:08 AM 30.2 °F 25.4 °F 28.4 °F 93% 30.10 in 1.8 mi NNE 4.6 mph - 0.01 in Snow Light Snow
8:26 AM 30.2 °F 26.7 °F 28.4 °F 93% 30.09 in 2.0 mi NE 3.5 mph - 0.01 in Snow Light Snow
8:54 AM 30.9 °F 24.3 °F 28.9 °F 92% 30.10 in 2.5 mi NNE 6.9 mph - 0.01 in Snow Light Snow
9:05 AM 30.2 °F 22.6 °F 28.4 °F 93% 30.07 in 4.0 mi NE 8.1 mph - 0.01 in Snow Light Snow
9:28 AM 32.0 °F 24.2 °F 28.4 °F 87% 30.06 in 2.5 mi NE 9.2 mph - 0.01 in Snow Light Snow
9:34 AM 32.0 °F 24.8 °F 30.2 °F 93% 30.06 in 3.0 mi NE 8.1 mph - 0.01 in Snow Light Snow
9:54 AM 32.0 °F 25.6 °F 30.0 °F 92% 30.07 in 6.0 mi NE 6.9 mph - 0.01 in   Overcast
10:14 AM 32.0 °F 26.4 °F 30.2 °F 93% 30.04 in 2.5 mi NE 5.8 mph - 0.00 in Snow Light Snow
10:41 AM 33.8 °F 27.0 °F 30.2 °F 87% 30.03 in 3.0 mi ENE 8.1 mph - 0.00 in Snow Light Snow
10:54 AM 33.1 °F 27.7 °F 30.0 °F 89% 30.04 in 2.5 mi NE 5.8 mph - 0.00 in Snow Light Snow
10:59 AM 33.8 °F 27.0 °F 30.2 °F 87% 30.02 in 1.2 mi ENE 8.1 mph - 0.00 in Snow Light Snow
11:54 AM 33.1 °F 26.1 °F 30.9 °F 92% 30.01 in 0.5 mi ENE 8.1 mph - 0.03 in Fog , Snow Snow
11:56 AM 33.8 °F 27.0 °F 30.2 °F 87% 29.99 in 0.2 mi ENE 8.1 mph - 0.00 in Fog , Snow Heavy Snow
12:04 PM 33.8 °F 27.7 °F 30.2 °F 87% 29.99 in 0.5 mi NE 6.9 mph - 0.01 in Fog , Snow Snow
12:54 PM 33.1 °F 26.1 °F 30.9 °F 92% 29.98 in 1.0 mi ENE 8.1 mph - 0.05 in Snow Light Snow
1:06 PM 33.8 °F 28.6 °F 32.0 °F 93% 29.96 in 1.0 mi Variable 5.8 mph - 0.00 in Snow Light Snow
1:13 PM 33.8 °F 27.7 °F 32.0 °F 93% 29.95 in 0.8 mi NE 6.9 mph - 0.01 in Snow Light Snow
1:21 PM 33.8 °F 27.0 °F 32.0 °F 93% 29.95 in 1.2 mi NE 8.1 mph - 0.01 in Snow Light Snow
1:29 PM 33.8 °F 27.0 °F 32.0 °F 93% 29.94 in 1.5 mi ENE 8.1 mph - 0.01 in Snow Light Snow
1:44 PM 33.8 °F 25.8 °F 32.0 °F 93% 29.94 in 2.0 mi ENE 10.4 mph - 0.01 in Snow Light Snow
1:54 PM 34.0 °F 26.0 °F 32.0 °F 92% 29.95 in 1.8 mi ENE 10.4 mph - 0.02 in Snow Light Snow
1:58 PM 33.8 °F 27.7 °F 32.0 °F 93% 29.93 in 1.2 mi ENE 6.9 mph - 0.00 in Snow Light Snow
2:17 PM 33.8 °F 25.8 °F 30.2 °F 87% 29.92 in 1.5 mi ENE 10.4 mph - 0.00 in Snow Light Snow
2:27 PM 33.8 °F 27.0 °F 30.2 °F 87% 29.92 in 1.8 mi ENE 8.1 mph - 0.00 in Snow Light Snow
2:34 PM 33.8 °F 26.4 °F 30.2 °F 87% 29.92 in 1.5 mi ENE 9.2 mph - 0.01 in Snow Light Snow
2:36 PM 33.8 °F 25.3 °F 30.2 °F 87% 29.92 in 1.2 mi ENE 11.5 mph 17.3 mph 0.01 in Snow Light Snow
2:41 PM 33.8 °F 25.3 °F 30.2 °F 87% 29.92 in 0.8 mi ENE 11.5 mph 17.3 mph 0.01 in Snow Light Snow
2:54 PM 33.1 °F 26.1 °F 30.9 °F 92% 29.94 in 0.8 mi NE 8.1 mph - 0.02 in Snow Light Snow
3:31 PM 33.8 °F 26.4 °F 30.2 °F 87% 29.91 in 1.2 mi NE 9.2 mph 18.4 mph 0.02 in Snow Light Snow
3:38 PM 33.8 °F 26.4 °F 30.2 °F 87% 29.90 in 0.8 mi ENE 9.2 mph - 0.03 in Snow Light Snow
3:50 PM 32.0 °F 25.6 °F 30.2 °F 93% 29.90 in 1.5 mi NE 6.9 mph - 0.03 in Snow Light Snow
3:54 PM 32.0 °F 24.2 °F 30.9 °F 96% 29.92 in 1.5 mi NE 9.2 mph - 0.03 in Snow Light Snow
3:56 PM 33.8 °F 25.3 °F 30.2 °F 87% 29.90 in 1.2 mi NE 11.5 mph 17.3 mph 0.00 in Snow Light Snow
4:08 PM 32.0 °F 24.2 °F 30.2 °F 93% 29.89 in 0.5 mi ENE 9.2 mph - 0.02 in Fog , Snow Snow
4:29 PM 32.0 °F 25.6 °F 30.2 °F 93% 29.88 in 0.8 mi NE 6.9 mph - 0.03 in Snow Light Snow
4:38 PM 32.0 °F 24.2 °F 30.2 °F 93% 29.88 in 1.0 mi NE 9.2 mph 16.1 mph 0.03 in Snow Light Snow
4:46 PM 32.0 °F 24.8 °F 30.2 °F 93% 29.88 in 0.8 mi ENE 8.1 mph - 0.03 in Snow Light Snow
4:54 PM 32.0 °F 24.8 °F 30.0 °F 92% 29.90 in 0.8 mi NE 8.1 mph - 0.04 in Snow Light Snow
5:17 PM 32.0 °F 25.6 °F 30.2 °F 93% 29.88 in 1.2 mi NE 6.9 mph 21.9 mph 0.00 in Snow Light Snow
5:24 PM 32.0 °F 24.8 °F 30.2 °F 93% 29.88 in 0.8 mi ENE 8.1 mph - 0.00 in Snow Light Snow
5:26 PM 32.0 °F 24.8 °F 30.2 °F 93% 29.88 in 1.0 mi ENE 8.1 mph - 0.01 in Snow Light Snow
5:35 PM 32.0 °F 24.8 °F 30.2 °F 93% 29.88 in 2.0 mi NE 8.1 mph - 0.01 in Snow Light Snow
5:42 PM 32.0 °F 24.2 °F 30.2 °F 93% 29.88 in 1.8 mi ENE 9.2 mph - 0.01 in Snow Light Snow
5:54 PM 32.0 °F 23.6 °F 28.9 °F 88% 29.89 in 1.5 mi ENE 10.4 mph - 0.01 in Snow Light Snow
6:12 PM 30.2 °F 22.6 °F 28.4 °F 93% 29.87 in 1.2 mi ENE 8.1 mph 17.3 mph 0.01 in Snow Light Snow
6:42 PM 30.2 °F 20.8 °F 30.2 °F 100% 29.86 in 1.0 mi NE 11.5 mph - 0.03 in Snow Light Snow
6:54 PM 30.9 °F 22.8 °F 28.9 °F 92% 29.87 in 1.0 mi NE 9.2 mph - 0.04 in Snow Light Snow
7:47 PM 30.2 °F 20.8 °F 28.4 °F 93% 29.80 in 0.8 mi NNE 11.5 mph - 0.05 in Snow Light Snow
7:54 PM 30.9 °F 22.8 °F 28.9 °F 92% 29.83 in 0.8 mi NNE 9.2 mph - 0.06 in Snow Light Snow
8:29 PM 30.2 °F 22.6 °F 30.2 °F 100% 29.79 in 0.5 mi NNE 8.1 mph - 0.07 in Fog , Snow Snow
8:36 PM 30.2 °F 21.9 °F 30.2 °F 100% 29.78 in 0.8 mi NNE 9.2 mph - 0.08 in Snow Light Snow
9:12 PM 30.2 °F 22.6 °F 30.2 °F 100% 29.75 in 1.2 mi North 8.1 mph - 0.02 in Snow Light Snow
9:54 PM 30.9 °F 24.3 °F 28.9 °F 92% 29.75 in 1.0 mi NNE 6.9 mph - 0.05 in Snow Light Snow
10:54 PM 30.9 °F 25.2 °F 28.9 °F 92% 29.74 in 1.0 mi North 5.8 mph - 0.03 in Snow Light Snow
11:10 PM 30.2 °F 24.3 °F 28.4 °F 93% 29.71 in 1.5 mi North 5.8 mph - 0.00 in Snow Light Snow
11:24 PM 30.2 °F 22.6 °F 28.4 °F 93% 29.71 in 1.2 mi North 8.1 mph - 0.01 in Snow Light Snow
11:32 PM 30.2 °F 23.4 °F 28.4 °F 93% 29.70 in 1.2 mi North 6.9 mph - 0.01 in Snow Light Snow
11:45 PM 30.2 °F 23.4 °F 28.4 °F 93% 29.70 in 1.5 mi North 6.9 mph - 0.02 in Snow Light Snow
11:54 PM 30.0 °F 24.1 °F 28.9 °F 96% 29.71 in 1.5 mi North 5.8 mph - 0.02 in Snow Light Snow